2015-04-09 00:08:16 r, 20.32m,0000000001Hz,0000726524c,0000001.577s, 014.1C,00002191
2015-04-09 00:18:17 r, 20.47m,0000000001Hz,0000833343c,0000001.808s, 014.1C,00002191
2015-04-09 00:28:16 r, 20.76m,0000000000Hz,0001090222c,0000002.366s, 013.8C,00002191
2015-04-09 00:38:16 r, 20.81m,0000000000Hz,0001141559c,0000002.477s, 013.8C,00002191
2015-04-09 00:48:16 r, 20.72m,0000000001Hz,0001047385c,0000002.273s, 013.8C,00002191
2015-04-09 00:58:16 r, 20.63m,0000000000Hz,0000966356c,0000002.097s, 013.5C,00002191
2015-04-09 01:08:16 r, 20.54m,0000000001Hz,0000889739c,0000001.931s, 013.2C,00002191
2015-04-09 01:18:16 r, 20.46m,0000000001Hz,0000823706c,0000001.788s, 012.8C,00002191
2015-04-09 01:28:16 r, 20.35m,0000000001Hz,0000748915c,0000001.625s, 012.5C,00002191
2015-04-09 01:38:16 r, 20.00m,0000000001Hz,0000548357c,0000001.190s, 012.2C,00002191
2015-04-09 01:48:17 r, 19.90m,0000000001Hz,0000494573c,0000001.073s, 011.9C,00002191
2015-04-09 01:58:16 r, 19.78m,0000000001Hz,0000445358c,0000000.966s, 011.9C,00002191
2015-04-09 02:08:16 r, 19.59m,0000000001Hz,0000373302c,0000000.810s, 011.9C,00002191
2015-04-09 02:18:18 r, 19.52m,0000000001Hz,0000351224c,0000000.762s, 011.9C,00002191
2015-04-09 02:28:16 r, 19.62m,0000000001Hz,0000384034c,0000000.833s, 011.9C,00002191
2015-04-09 02:38:16 r, 19.62m,0000000001Hz,0000383142c,0000000.831s, 011.9C,00002191
2015-04-09 02:48:18 r, 19.35m,0000000002Hz,0000299358c,0000000.650s, 012.2C,00002191
2015-04-09 02:58:16 r, 19.31m,0000000001Hz,0000288856c,0000000.627s, 012.5C,00002191
2015-04-09 03:08:16 r, 19.14m,0000000002Hz,0000246522c,0000000.535s, 012.5C,00002191
2015-04-09 03:18:17 r, 18.79m,0000000002Hz,0000178743c,0000000.388s, 012.8C,00002191
2015-04-09 03:28:16 r, 19.23m,0000000002Hz,0000269705c,0000000.585s, 013.2C,00002191
2015-04-09 03:38:16 r, 19.63m,0000000001Hz,0000385822c,0000000.837s, 013.2C,00002191
2015-04-09 03:48:17 r, 19.62m,0000000001Hz,0000384961c,0000000.835s, 013.2C,00002191
2015-04-09 03:58:16 r, 19.60m,0000000001Hz,0000378172c,0000000.821s, 012.8C,00002191
2015-04-09 04:08:16 r, 19.60m,0000000001Hz,0000377261c,0000000.819s, 012.5C,00002191
2015-04-09 04:18:16 r, 19.59m,0000000001Hz,0000371515c,0000000.806s, 012.5C,00002191
2015-04-09 04:28:16 r, 19.56m,0000000001Hz,0000360757c,0000000.783s, 012.2C,00002191
2015-04-09 04:38:16 r, 19.53m,0000000001Hz,0000352278c,0000000.764s, 011.9C,00002191
2015-04-09 04:48:16 r, 19.52m,0000000001Hz,0000350204c,0000000.760s, 011.9C,00002191
2015-04-09 04:58:16 r, 19.52m,0000000002Hz,0000349167c,0000000.758s, 011.9C,00002191
2015-04-09 05:08:16 r, 19.49m,0000000001Hz,0000339994c,0000000.738s, 011.9C,00002191
2015-04-09 05:18:16 r, 19.50m,0000000001Hz,0000342570c,0000000.743s, 011.9C,00002191
2015-04-09 05:28:16 r, 19.32m,0000000002Hz,0000291857c,0000000.633s, 011.6C,00002191
2015-04-09 05:38:16 r, 18.84m,0000000003Hz,0000187133c,0000000.406s, 011.6C,00002191
2015-04-09 05:48:16 r, 17.89m,0000000006Hz,0000078567c,0000000.171s, 011.6C,00002191
2015-04-09 05:58:16 r, 16.56m,0000000020Hz,0000023009c,0000000.050s, 011.2C,00002191
2015-04-09 06:08:16 r, 14.72m,0000000106Hz,0000004282c,0000000.009s, 010.9C,00002191
2015-04-09 06:18:16 r, 12.68m,0000000719Hz,0000000000c,0000000.000s, 010.6C,00002191
2015-04-09 06:28:16 r, 10.73m,0000004327Hz,0000000000c,0000000.000s, 010.3C,00002191
2015-04-09 06:38:16 r, 09.01m,0000021015Hz,0000000000c,0000000.000s, 009.9C,00002191
2015-04-09 06:48:16 r, 07.77m,0000066390Hz,0000000000c,0000000.000s, 009.9C,00002191
2015-04-09 06:58:16 r, 06.92m,0000144619Hz,0000000000c,0000000.000s, 010.3C,00002191
2015-04-09 07:08:16 r, 06.30m,0000254912Hz,0000000000c,0000000.000s, 010.3C,00002191
2015-04-09 07:18:17 r, 00.00m,0000435735Hz,0000000000c,0000000.000s, 010.3C,00002191
2015-04-09 07:28:16 r, 00.00m,0000595863Hz,0000000000c,0000000.000s, 010.9C,00002191
2015-04-09 07:38:16 r, 00.00m,0000595726Hz,0000000000c,0000000.000s, 011.9C,00002191
2015-04-09 07:48:16 r, 00.00m,0000595636Hz,0000000000c,0000000.000s, 013.2C,00002191
2015-04-09 07:58:16 r, 00.00m,0000595504Hz,0000000000c,0000000.000s, 014.5C,00002191
2015-04-09 08:08:16 r, 00.00m,0000595473Hz,0000000000c,0000000.000s, 015.7C,00002191
2015-04-09 08:18:16 r, 00.00m,0000595331Hz,0000000000c,0000000.000s, 016.7C,00002191
2015-04-09 08:28:16 r, 00.00m,0000595210Hz,0000000000c,0000000.000s, 017.7C,00002191
2015-04-09 08:38:16 r, 00.00m,0000595204Hz,0000000000c,0000000.000s, 018.3C,00002191
2015-04-09 08:48:16 r, 00.00m,0000595196Hz,0000000000c,0000000.000s, 019.6C,00002191
2015-04-09 08:58:16 r, 00.00m,0000595177Hz,0000000000c,0000000.000s, 020.3C,00002191
2015-04-09 09:08:16 r, 00.00m,0000595046Hz,0000000000c,0000000.000s, 021.5C,00002191
2015-04-09 09:18:16 r, 00.00m,0000594874Hz,0000000000c,0000000.000s, 022.8C,00002191
2015-04-09 09:28:16 r, 00.00m,0000594808Hz,0000000000c,0000000.000s, 023.5C,00002191
2015-04-09 09:38:16 r, 00.00m,0000594772Hz,0000000000c,0000000.000s, 024.4C,00002191
2015-04-09 09:48:16 r, 00.00m,0000594585Hz,0000000000c,0000000.000s, 026.1C,00002191
2015-04-09 09:58:16 r, 00.00m,0000594458Hz,0000000000c,0000000.000s, 027.3C,00002191
2015-04-09 10:08:16 r, 00.00m,0000594431Hz,0000000000c,0000000.000s, 028.6C,00002191
2015-04-09 10:18:16 r, 00.00m,0000594216Hz,0000000000c,0000000.000s, 029.6C,00002191
2015-04-09 10:28:16 r, 00.00m,0000594109Hz,0000000000c,0000000.000s, 030.2C,00002191
2015-04-09 10:38:16 r, 00.00m,0000594038Hz,0000000000c,0000000.000s, 030.6C,00002191
2015-04-09 10:48:16 r, 00.00m,0000593913Hz,0000000000c,0000000.000s, 031.5C,00002191
2015-04-09 10:58:16 r, 00.00m,0000593916Hz,0000000000c,0000000.000s, 032.5C,00002191
2015-04-09 11:08:16 r, 00.00m,0000593698Hz,0000000000c,0000000.000s, 033.1C,00002191
2015-04-09 11:18:16 r, 00.00m,0000593651Hz,0000000000c,0000000.000s, 034.1C,00002191
2015-04-09 11:28:16 r, 00.00m,0000593610Hz,0000000000c,0000000.000s, 034.8C,00002191
2015-04-09 11:38:16 r, 00.00m,0000593428Hz,0000000000c,0000000.000s, 035.1C,00002191
2015-04-09 11:48:16 r, 00.00m,0000593347Hz,0000000000c,0000000.000s, 035.7C,00002191
2015-04-09 11:58:16 r, 00.00m,0000593300Hz,0000000000c,0000000.000s, 036.4C,00002191
2015-04-09 12:08:16 r, 00.00m,0000593245Hz,0000000000c,0000000.000s, 036.7C,00002191
2015-04-09 12:18:16 r, 00.00m,0000593127Hz,0000000000c,0000000.000s, 037.7C,00002191
2015-04-09 12:28:16 r, 00.00m,0000592984Hz,0000000000c,0000000.000s, 038.3C,00002191
2015-04-09 12:38:16 r, 00.00m,0000592964Hz,0000000000c,0000000.000s, 038.6C,00002191
2015-04-09 12:48:16 r, 00.00m,0000592882Hz,0000000000c,0000000.000s, 039.3C,00002191
2015-04-09 12:58:17 r, 00.00m,0000592772Hz,0000000000c,0000000.000s, 039.9C,00002191
2015-04-09 13:08:16 r, 00.00m,0000592660Hz,0000000000c,0000000.000s, 040.2C,00002191
2015-04-09 13:18:16 r, 00.00m,0000592732Hz,0000000000c,0000000.000s, 040.2C,00002191
2015-04-09 13:28:18 r, 00.00m,0000592638Hz,0000000000c,0000000.000s, 040.6C,00002191
2015-04-09 13:38:16 r, 00.00m,0000592606Hz,0000000000c,0000000.000s, 040.6C,00002191
2015-04-09 13:48:16 r, 00.00m,0000592651Hz,0000000000c,0000000.000s, 040.2C,00002191
2015-04-09 13:58:16 r, 00.00m,0000593119Hz,0000000000c,0000000.000s, 037.3C,00002191
2015-04-09 14:08:16 r, 00.00m,0000593365Hz,0000000000c,0000000.000s, 034.8C,00002191
2015-04-09 14:18:16 r, 00.00m,0000593365Hz,0000000000c,0000000.000s, 035.7C,00002191
2015-04-09 14:28:16 r, 00.00m,0000593636Hz,0000000000c,0000000.000s, 033.5C,00002191
2015-04-09 14:38:16 r, 00.00m,0000593722Hz,0000000000c,0000000.000s, 032.2C,00002191
2015-04-09 14:48:16 r, 00.00m,0000593604Hz,0000000000c,0000000.000s, 033.1C,00002191
2015-04-09 14:58:17 r, 00.00m,0000593964Hz,0000000000c,0000000.000s, 030.9C,00002191
2015-04-09 15:08:16 r, 00.00m,0000594107Hz,0000000000c,0000000.000s, 029.3C,00002191
2015-04-09 15:18:16 r, 00.00m,0000594133Hz,0000000000c,0000000.000s, 028.6C,00002191
2015-04-09 15:28:16 r, 00.00m,0000593787Hz,0000000000c,0000000.000s, 030.9C,00002191
2015-04-09 15:38:16 r, 00.00m,0000593387Hz,0000000000c,0000000.000s, 033.8C,00002191
2015-04-09 15:48:16 r, 00.00m,0000593300Hz,0000000000c,0000000.000s, 034.8C,00002191
2015-04-09 15:58:16 r, 00.00m,0000593265Hz,0000000000c,0000000.000s, 035.1C,00002191
2015-04-09 16:08:16 r, 00.00m,0000593575Hz,0000000000c,0000000.000s, 032.8C,00002191
2015-04-09 16:18:16 r, 00.00m,0000593828Hz,0000000000c,0000000.000s, 030.9C,00002191
2015-04-09 16:28:16 r, 00.00m,0000593620Hz,0000000000c,0000000.000s, 032.2C,00002191
2015-04-09 16:38:16 r, 00.00m,0000593787Hz,0000000000c,0000000.000s, 030.9C,00002191
2015-04-09 16:48:16 r, 00.00m,0000593955Hz,0000000000c,0000000.000s, 029.9C,00002191
2015-04-09 16:58:16 r, 00.00m,0000594199Hz,0000000000c,0000000.000s, 028.3C,00002191
2015-04-09 17:08:16 r, 00.00m,0000594308Hz,0000000000c,0000000.000s, 026.1C,00002191
2015-04-09 17:18:16 r, 00.00m,0000594457Hz,0000000000c,0000000.000s, 024.8C,00002191
2015-04-09 17:28:16 r, 00.00m,0000594470Hz,0000000000c,0000000.000s, 024.1C,00002191
2015-04-09 17:38:16 r, 00.00m,0000594173Hz,0000000000c,0000000.000s, 026.7C,00002191
2015-04-09 17:48:16 r, 00.00m,0000594167Hz,0000000000c,0000000.000s, 027.7C,00002191
2015-04-09 17:58:18 r, 00.00m,0000594289Hz,0000000000c,0000000.000s, 027.3C,00002191
2015-04-09 18:08:16 r, 00.00m,0000594378Hz,0000000000c,0000000.000s, 025.7C,00002191
2015-04-09 18:18:16 r, 00.00m,0000594444Hz,0000000000c,0000000.000s, 024.8C,00002191
2015-04-09 18:28:17 r, 00.00m,0000594437Hz,0000000000c,0000000.000s, 024.4C,00002191
2015-04-09 18:38:16 r, 00.00m,0000594518Hz,0000000000c,0000000.000s, 024.4C,00002191
2015-04-09 18:48:16 r, 00.00m,0000594670Hz,0000000000c,0000000.000s, 023.5C,00002191
2015-04-09 18:58:17 r, 00.00m,0000594807Hz,0000000000c,0000000.000s, 021.5C,00002191
2015-04-09 19:08:16 r, 00.00m,0000594886Hz,0000000000c,0000000.000s, 020.3C,00002191
2015-04-09 19:18:16 r, 00.00m,0000595031Hz,0000000000c,0000000.000s, 019.3C,00002191
2015-04-09 19:28:17 r, 00.00m,0000594929Hz,0000000000c,0000000.000s, 018.6C,00002191
2015-04-09 19:38:16 r, 00.00m,0000454387Hz,0000000000c,0000000.000s, 018.6C,00002191
2015-04-09 19:48:16 r, 06.20m,0000279450Hz,0000000000c,0000000.000s, 018.0C,00002191
2015-04-09 19:58:16 r, 06.54m,0000204163Hz,0000000000c,0000000.000s, 017.4C,00002191
2015-04-09 20:08:16 r, 07.15m,0000116267Hz,0000000000c,0000000.000s, 017.0C,00002191
2015-04-09 20:18:16 r, 08.40m,0000037052Hz,0000000000c,0000000.000s, 016.7C,00002191
2015-04-09 20:28:16 r, 09.90m,0000009236Hz,0000000000c,0000000.000s, 016.1C,00002191
2015-04-09 20:38:16 r, 11.80m,0000001615Hz,0000000000c,0000000.000s, 015.4C,00002191
2015-04-09 20:48:16 r, 13.77m,0000000263Hz,0000000000c,0000000.000s, 014.8C,00002191
2015-04-09 20:58:16 r, 15.84m,0000000039Hz,0000011956c,0000000.026s, 014.5C,00002191
2015-04-09 21:08:16 r, 17.24m,0000000011Hz,0000043185c,0000000.094s, 013.8C,00002191
2015-04-09 21:18:16 r, 18.29m,0000000004Hz,0000114157c,0000000.248s, 013.2C,00002191
2015-04-09 21:28:16 r, 19.39m,0000000001Hz,0000309269c,0000000.671s, 013.2C,00002191
2015-04-09 21:38:16 r, 19.57m,0000000001Hz,0000364907c,0000000.792s, 013.5C,00002191
2015-04-09 21:48:16 r, 19.62m,0000000002Hz,0000384733c,0000000.835s, 014.1C,00002191
2015-04-09 21:58:18 r, 19.37m,0000000002Hz,0000304436c,0000000.661s, 014.5C,00002191
2015-04-09 22:08:16 r, 19.46m,0000000001Hz,0000332032c,0000000.721s, 014.5C,00002191
2015-04-09 22:18:16 r, 19.49m,0000000001Hz,0000340721c,0000000.739s, 014.5C,00002191
2015-04-09 22:28:17 r, 19.43m,0000000001Hz,0000322585c,0000000.700s, 014.8C,00002191
2015-04-09 22:38:16 r, 19.28m,0000000001Hz,0000282164c,0000000.612s, 014.8C,00002191
2015-04-09 22:48:16 r, 18.78m,0000000003Hz,0000178475c,0000000.387s, 014.8C,00002191
2015-04-09 22:58:16 r, 19.05m,0000000002Hz,0000228294c,0000000.495s, 014.8C,00002191
2015-04-09 23:08:16 r, 19.23m,0000000001Hz,0000266823c,0000000.579s, 015.1C,00002191
2015-04-09 23:18:16 r, 19.25m,0000000002Hz,0000273651c,0000000.594s, 015.1C,00002191
2015-04-09 23:28:16 r, 19.32m,0000000002Hz,0000291879c,0000000.633s, 014.8C,00002191
2015-04-09 23:38:16 r, 19.34m,0000000002Hz,0000297658c,0000000.646s, 014.5C,00002191
2015-04-09 23:48:16 r, 19.30m,0000000002Hz,0000284977c,0000000.618s, 014.5C,00002191
2015-04-09 23:58:16 r, 19.46m,0000000001Hz,0000332213c,0000000.721s, 014.5C,00002191
